User: anonymous   Login
Location: Unspecified
(0.0000°N, 0.0000°E)
Time: 10:54:44
(UTC+00:00)
Language:

TBA - TO BE ASSIGNED - Orbit

View from above orbital plane
View from above orbital plane
View from above satellite
View from above satellite

Ground track
Ground track

The orbit is defined by the following mean orbital elements,

1 67845U          26145.49762698 +.00000000 +00000-0 +44393-3 0 00008
2 67845  43.0007 193.0235 0001453 276.4056  83.6630 15.27590015    03
Epoch (UTC): 25 May 2026 11:56:34
Eccentricity: 0.0001453
inclination: 43.0007°
perigee height: 482 km
apogee height: 484 km
right ascension of ascending node: 193.0235°
argument of perigee: 276.4056°
revolutions per day: 15.27590015
mean anomaly at epoch: 83.6630°

The dashed part of the orbit path shows where the satellite is in the earth's shadow,  

DLR